When you browse on this site, cookies collect data to enhance your experience and personalize the content and advertising you see.
Visit our Privacy Policy to learn more. By continuing to use the site, you agree to this use of cookies and data.
  • In Portugal
  • List of Countries
  • For 7 days
  • Water Temperature
  • Satellite Maps
  • Weather Map
  • Weather Widgets
  • user-avatar
    Login

    Hourly Weather Burdeki

    Today, 19 June, Wednesday

    Time Temperature Precipitation Wind Pressure Humidity
    00:00 +18°C° 0 mm 2 mps 695 mmHg 69%
    01:00 +18°C° 0 mm 2 mps 695 mmHg 68%
    02:00 +18°C° 0 mm 2 mps 695 mmHg 67%
    03:00 +18°C° 0 mm 2 mps 695 mmHg 66%
    04:00 +19°C° 0 mm 2 mps 695 mmHg 64%
    05:00 +21°C° 0 mm 1 mps 695 mmHg 63%
    06:00 +22°C° 0 mm 1 mps 696 mmHg 61%
    07:00 +24°C° 0 mm 1 mps 696 mmHg 55%
    08:00 +25°C° 0 mm 2 mps 696 mmHg 48%
    09:00 +27°C° 0 mm 2 mps 696 mmHg 41%
    10:00 +28°C° 0 mm 3 mps 696 mmHg 41%
    11:00 +28°C° 0 mm 3 mps 696 mmHg 40%
    12:00 +29°C° 0 mm 4 mps 697 mmHg 39%
    13:00 +28°C° 0.1 mm 4 mps 696 mmHg 40%
    14:00 +28°C° 0.1 mm 4 mps 696 mmHg 41%
    15:00 +28°C° 0.1 mm 3 mps 696 mmHg 41%
    16:00 +27°C° 0.1 mm 3 mps 696 mmHg 46%
    17:00 +26°C° 0.1 mm 2 mps 696 mmHg 50%
    18:00 +25°C° 0.1 mm 1 mps 696 mmHg 55%
    19:00 +24°C° 0 mm 1 mps 695 mmHg 57%
    20:00 +22°C° 0 mm 1 mps 695 mmHg 60%
    21:00 +21°C° 0 mm 1 mps 695 mmHg 62%
    22:00 +21°C° 0 mm 1 mps 695 mmHg 63%
    23:00 +20°C° 0 mm 1 mps 695 mmHg 64%

    Tomorrow, 20 June, Thursday

    Time Temperature Precipitation Wind Pressure Humidity
    00:00 +20°C° 0 mm 1 mps 695 mmHg 65%
    01:00 +20°C° 0 mm 1 mps 695 mmHg 65%
    02:00 +20°C° 0 mm 1 mps 695 mmHg 65%
    03:00 +19°C° 0 mm 1 mps 695 mmHg 65%
    04:00 +21°C° 0 mm 1 mps 695 mmHg 63%
    05:00 +22°C° 0 mm 1 mps 695 mmHg 62%
    06:00 +23°C° 0 mm 1 mps 695 mmHg 60%
    07:00 +25°C° 0 mm 1 mps 696 mmHg 55%
    08:00 +26°C° 0 mm 2 mps 696 mmHg 49%
    09:00 +28°C° 0 mm 2 mps 696 mmHg 43%
    10:00 +28°C° 0.1 mm 3 mps 696 mmHg 42%
    11:00 +28°C° 0.1 mm 3 mps 696 mmHg 41%
    12:00 +29°C° 0.1 mm 4 mps 696 mmHg 40%
    13:00 +28°C° 0.1 mm 3 mps 695 mmHg 41%
    14:00 +28°C° 0.1 mm 3 mps 695 mmHg 41%
    15:00 +27°C° 0.1 mm 3 mps 695 mmHg 42%
    16:00 +27°C° 0.2 mm 2 mps 695 mmHg 45%
    17:00 +26°C° 0.2 mm 2 mps 695 mmHg 49%
    18:00 +25°C° 0.2 mm 1 mps 694 mmHg 52%
    19:00 +23°C° 0 mm 1 mps 695 mmHg 55%
    20:00 +22°C° 0 mm 1 mps 695 mmHg 57%
    21:00 +20°C° 0 mm 1 mps 695 mmHg 60%
    22:00 +20°C° 0 mm 1 mps 695 mmHg 60%
    23:00 +19°C° 0 mm 2 mps 695 mmHg 60%

    Day after tomorrow, 21 June, Friday

    Time Temperature Precipitation Wind Pressure Humidity
    00:00 +19°C° 0 mm 2 mps 695 mmHg 60%
    01:00 +19°C° 0 mm 2 mps 694 mmHg 59%
    02:00 +18°C° 0 mm 2 mps 694 mmHg 58%
    03:00 +18°C° 0 mm 2 mps 694 mmHg 57%
    04:00 +19°C° 0 mm 2 mps 694 mmHg 56%
    05:00 +20°C° 0 mm 2 mps 695 mmHg 54%
    06:00 +23°C° 0 mm 2 mps 695 mmHg 53%
    07:00 +24°C° 0 mm 2 mps 696 mmHg 49%
    08:00 +26°C° 0 mm 2 mps 696 mmHg 44%
    09:00 +27°C° 0 mm 2 mps 696 mmHg 40%
    10:00 +28°C° 0 mm 3 mps 696 mmHg 40%
    11:00 +28°C° 0 mm 3 mps 696 mmHg 41%
    12:00 +29°C° 0 mm 4 mps 696 mmHg 41%
    13:00 +28°C° 0 mm 4 mps 696 mmHg 42%
    14:00 +28°C° 0 mm 4 mps 696 mmHg 43%
    15:00 +28°C° 0 mm 4 mps 696 mmHg 44%
    16:00 +27°C° 0 mm 3 mps 696 mmHg 49%
    17:00 +26°C° 0 mm 3 mps 696 mmHg 53%
    18:00 +25°C° 0 mm 2 mps 696 mmHg 57%
    19:00 +24°C° 0 mm 2 mps 696 mmHg 61%
    20:00 +21°C° 0 mm 2 mps 696 mmHg 64%
    21:00 +19°C° 0 mm 2 mps 696 mmHg 68%
    22:00 +19°C° 0 mm 2 mps 696 mmHg 67%
    23:00 +19°C° 0 mm 2 mps 696 mmHg 66%

    22 June, Saturday

    Time Temperature Precipitation Wind Pressure Humidity
    00:00 +19°C° 0 mm 2 mps 696 mmHg 65%
    01:00 +19°C° 0 mm 2 mps 696 mmHg 63%
    02:00 +18°C° 0 mm 2 mps 696 mmHg 62%
    03:00 +18°C° 0 mm 2 mps 696 mmHg 60%
    04:00 +19°C° 0 mm 2 mps 696 mmHg 58%
    05:00 +21°C° 0 mm 2 mps 696 mmHg 57%
    06:00 +23°C° 0 mm 2 mps 697 mmHg 55%
    07:00 +24°C° 0 mm 2 mps 697 mmHg 50%
    08:00 +26°C° 0 mm 2 mps 697 mmHg 45%
    09:00 +28°C° 0 mm 2 mps 698 mmHg 40%
    10:00 +29°C° 0 mm 2 mps 698 mmHg 40%
    11:00 +29°C° 0 mm 3 mps 698 mmHg 40%
    12:00 +30°C° 0 mm 3 mps 698 mmHg 40%
    13:00 +29°C° 0 mm 3 mps 697 mmHg 40%
    14:00 +29°C° 0 mm 3 mps 697 mmHg 41%
    15:00 +29°C° 0 mm 2 mps 697 mmHg 43%
    16:00 +28°C° 0 mm 2 mps 697 mmHg 47%
    17:00 +28°C° 0 mm 1 mps 697 mmHg 51%
    18:00 +27°C° 0 mm 1 mps 697 mmHg 55%
    19:00 +26°C° 0.1 mm 1 mps 697 mmHg 58%
    20:00 +24°C° 0.1 mm 1 mps 697 mmHg 61%
    21:00 +23°C° 0.1 mm 1 mps 697 mmHg 63%
    22:00 +22°C° 0 mm 1 mps 697 mmHg 64%
    23:00 +22°C° 0 mm 1 mps 696 mmHg 65%

    23 June, Sunday

    Time Temperature Precipitation Wind Pressure Humidity
    00:00 +20°C° 0 mm 2 mps 696 mmHg 66%
    01:00 +20°C° 0 mm 2 mps 696 mmHg 65%
    02:00 +20°C° 0 mm 2 mps 696 mmHg 65%
    03:00 +20°C° 0 mm 2 mps 696 mmHg 64%
    04:00 +21°C° 0 mm 2 mps 696 mmHg 63%
    05:00 +23°C° 0 mm 2 mps 697 mmHg 61%
    06:00 +24°C° 0 mm 2 mps 697 mmHg 59%
    07:00 +26°C° 0 mm 2 mps 697 mmHg 53%
    08:00 +28°C° 0 mm 2 mps 697 mmHg 47%
    09:00 +29°C° 0 mm 2 mps 698 mmHg 41%
    10:00 +30°C° 0 mm 2 mps 698 mmHg 41%
    11:00 +30°C° 0 mm 3 mps 698 mmHg 41%
    12:00 +30°C° 0 mm 3 mps 698 mmHg 41%
    13:00 +30°C° 0.1 mm 3 mps 698 mmHg 41%
    14:00 +30°C° 0.1 mm 3 mps 697 mmHg 41%
    15:00 +30°C° 0.1 mm 3 mps 697 mmHg 41%
    16:00 +29°C° 0.1 mm 2 mps 697 mmHg 45%
    17:00 +28°C° 0.1 mm 1 mps 697 mmHg 48%
    18:00 +28°C° 0.1 mm 1 mps 697 mmHg 51%
    19:00 +26°C° 0 mm 1 mps 697 mmHg 53%
    20:00 +25°C° 0 mm 1 mps 697 mmHg 55%
    21:00 +23°C° 0 mm 1 mps 697 mmHg 57%
    22:00 +23°C° 0 mm 1 mps 696 mmHg 57%
    23:00 +23°C° 0 mm 2 mps 696 mmHg 57%

    24 June, Monday

    Time Temperature Precipitation Wind Pressure Humidity
    00:00 +21°C° 0 mm 2 mps 696 mmHg 58%
    01:00 +21°C° 0 mm 2 mps 696 mmHg 57%
    02:00 +21°C° 0 mm 2 mps 696 mmHg 57%
    03:00 +21°C° 0 mm 2 mps 696 mmHg 57%
    04:00 +23°C° 0 mm 2 mps 696 mmHg 56%
    05:00 +24°C° 0 mm 1 mps 697 mmHg 55%
    06:00 +25°C° 0 mm 1 mps 697 mmHg 55%
    07:00 +26°C° 0 mm 1 mps 697 mmHg 50%
    08:00 +27°C° 0 mm 1 mps 697 mmHg 46%
    09:00 +28°C° 0 mm 2 mps 698 mmHg 42%
    10:00 +29°C° 0.1 mm 2 mps 698 mmHg 42%
    11:00 +29°C° 0.1 mm 2 mps 697 mmHg 42%
    12:00 +29°C° 0.1 mm 2 mps 697 mmHg 42%
    13:00 +29°C° 0.1 mm 2 mps 697 mmHg 43%
    14:00 +29°C° 0.1 mm 2 mps 697 mmHg 44%
    15:00 +28°C° 0.1 mm 2 mps 697 mmHg 44%
    16:00 +28°C° 0.1 mm 1 mps 697 mmHg 48%
    17:00 +27°C° 0.1 mm 1 mps 697 mmHg 52%
    18:00 +27°C° 0.1 mm 1 mps 696 mmHg 56%
    19:00 +25°C° 0.3 mm 1 mps 697 mmHg 59%
    20:00 +24°C° 0.3 mm 1 mps 697 mmHg 62%
    21:00 +22°C° 0.3 mm 1 mps 697 mmHg 65%
    22:00 +22°C° 0.1 mm 1 mps 697 mmHg 65%
    23:00 +23°C° 0.1 mm 2 mps 697 mmHg 64%
    Show more